KG6SIB Weather Reports


time (UTC)temp
C
wind
direction
speed
KPH
gust
KPH
rain 1hr
cm
rain 24hr
cm
rain mn
cm
humidity
%
barometer
mb
20230208155652 10 141 12.9 37.0 0.00 0.00 0.00 33 1022.3
20230208155152 9 120 14.5 37.0 0.00 0.00 0.00 34 1021.9
20230208154651 9 78 14.5 22.5 0.00 0.00 0.00 34 1021.9
20230208154151 9 95 6.4 16.1 0.00 0.00 0.00 35 1022.1
20230208153651 9 62 1.6 24.1 0.00 0.00 0.00 34 1022.1
20230208153151 9 92 6.4 24.1 0.00 0.00 0.00 34 1022.2
20230208152651 9 80 11.3 25.7 0.00 0.00 0.00 33 1022.0
20230208151651 9 133 19.3 30.6 0.00 0.00 0.00 33 1021.6
20230208151151 9 98 27.4 30.6 0.00 0.00 0.00 33 1021.6
20230208150651 9 111 14.5 25.7 0.00 0.00 0.00 34 1021.6
20230208150150 8 90 12.9 25.7 0.00 0.00 0.00 34 1021.5
20230208145650 8 77 16.1 25.7 0.00 0.00 0.00 34 1021.5
20230208145150 9 81 8.0 25.7 0.00 0.00 0.00 33 1021.7
20230208144650 9 56 16.1 25.7 0.00 0.00 0.00 33 1021.6
20230208144150 9 12 8.0 25.7 0.00 0.00 0.00 32 1021.5
20230208143650 9 59 8.0 25.7 0.00 0.00 0.00 32 1021.4
20230208143149 9 46 17.7 32.2 0.00 0.00 0.00 32 1021.3
20230208142649 9 75 11.3 32.2 0.00 0.00 0.00 32 1021.1
20230208142150 9 87 17.7 25.7 0.00 0.00 0.00 32 1020.9
20230208141132 9 90 24.1 32.2 0.00 0.00 0.00 32 1021.3
20230208140632 9 82 11.3 24.1 0.00 0.00 0.00 31 1021.2
20230208140131 9 86 11.3 24.1 0.00 0.00 0.00 31 1021.5
20230208135632 9 80 14.5 24.1 0.00 0.00 0.00 32 1021.4
20230208135132 9 122 14.5 20.9 0.00 0.00 0.00 31 1021.3
20230208134632 9 97 9.7 25.7 0.00 0.00 0.00 31 1021.2
20230208134131 9 113 12.9 25.7 0.00 0.00 0.00 31 1021.1
20230208133131 9 58 9.7 22.5 0.00 0.00 0.00 32 1021.0
20230208132632 9 89 6.4 22.5 0.00 0.00 0.00 31 1021.0
20230208132130 8 57 16.1 22.5 0.00 0.00 0.00 31 1021.0
20230208131631 8 113 16.1 24.1 0.00 0.00 0.00 32 1020.9
20230208131130 8 9 4.8 27.4 0.00 0.00 0.00 31 1020.9
20230208130630 8 64 8.0 27.4 0.00 0.00 0.00 31 1021.0
20230208130131 8 55 9.7 12.9 0.00 0.00 0.00 31 1022.1
20230208125630 8 76 4.8 16.1 0.00 0.00 0.00 31 1022.2
20230208124130 9 50 6.4 19.3 0.00 0.00 0.00 30 1022.1
20230208123629 9 65 6.4 17.7 0.00 0.00 0.00 30 1022.0
20230208123130 9 103 6.4 20.9 0.00 0.00 0.00 30 1021.8
20230208122629 9 25 16.1 29.0 0.00 0.00 0.00 30 1021.8
20230208122129 9 86 0.0 29.0 0.00 0.00 0.00 31 1021.9
20230208121628 9 62 12.9 22.5 0.00 0.00 0.00 31 1021.8
20230208121159 9 74 6.4 20.9 0.00 0.00 0.00 31 1021.8
20230208120659 9 27 19.3 20.9 0.00 0.00 0.00 31 1021.7
20230208120159 9 31 0.0 16.1 0.00 0.00 0.00 31 1022.5
20230208115658 9 103 3.2 16.1 0.00 0.00 0.00 30 1022.4
20230208115158 9 124 1.6 24.1 0.00 0.00 0.00 31 1022.5
20230208114658 10 44 0.0 24.1 0.00 0.00 0.00 30 1022.7
20230208114158 10 76 6.4 32.2 0.00 0.00 0.00 30 1022.7
20230208113658 10 68 16.1 32.2 0.00 0.00 0.00 30 1022.6
20230208113157 10 113 19.3 30.6 0.00 0.00 0.00 30 1022.4
20230208112658 10 111 14.5 30.6 0.00 0.00 0.00 30 1022.5
20230208112157 10 76 17.7 29.0 0.00 0.00 0.00 31 1022.7
20230208111657 10 348 6.4 30.6 0.00 0.00 0.00 30 1022.6
20230208111157 10 105 20.9 32.2 0.00 0.00 0.00 30 1022.7
20230208110658 10 90 27.4 32.2 0.00 0.00 0.00 30 1022.8
20230208110157 10 95 14.5 32.2 0.00 0.00 0.00 30 1022.8
20230208105657 10 98 24.1 32.2 0.00 0.00 0.00 31 1022.8
20230208105156 10 98 20.9 33.8 0.00 0.00 0.00 31 1022.8
20230208104656 10 131 17.7 33.8 0.00 0.00 0.00 31 1022.9
20230208104156 10 103 20.9 32.2 0.00 0.00 0.00 31 1023.0
20230208103656 10 106 16.1 32.2 0.00 0.00 0.00 31 1023.1
20230208103156 10 97 22.5 38.6 0.00 0.00 0.00 31 1023.2
20230208102656 10 111 24.1 38.6 0.00 0.00 0.00 31 1022.9
20230208101655 9 76 4.8 33.8 0.00 0.00 0.00 31 1022.9
20230208100656 9 93 16.1 25.7 0.00 0.00 0.00 31 1023.4
20230208100155 9 77 17.7 22.5 0.00 0.00 0.00 31 1023.3
20230208095655 10 75 3.2 30.6 0.00 0.00 0.00 31 1023.6
20230208095155 10 13 14.5 30.6 0.00 0.00 0.00 30 1023.7
20230208094655 10 61 24.1 25.7 0.00 0.00 0.00 30 1023.7
20230208094155 10 43 20.9 29.0 0.00 0.00 0.00 31 1023.6
20230208093154 9 97 14.5 25.7 0.00 0.00 0.00 31 1023.3
20230208092654 9 89 8.0 19.3 0.00 0.00 0.00 32 1023.4
20230208092154 9 36 4.8 20.9 0.00 0.00 0.00 32 1023.5
20230208091153 9 78 8.0 27.4 0.00 0.00 0.00 31 1023.6
20230208090653 10 28 6.4 27.4 0.00 0.00 0.00 32 1024.0
20230208090153 9 90 16.1 33.8 0.00 0.00 0.00 30 1024.2
20230208085653 9 88 3.2 33.8 0.00 0.00 0.00 30 1024.3
20230208084653 10 69 9.7 29.0 0.00 0.00 0.00 30 1024.2
20230208084153 9 57 4.8 29.0 0.00 0.00 0.00 30 1024.1
20230208083652 9 90 12.9 20.9 0.00 0.00 0.00 30 1024.0
20230208083152 9 107 9.7 20.9 0.00 0.00 0.00 31 1024.1
20230208082652 10 91 11.3 24.1 0.00 0.00 0.00 30 1024.1
20230208082153 10 82 12.9 24.1 0.00 0.00 0.00 30 1024.2
20230208081159 9 107 17.7 27.4 0.00 0.00 0.00 30 1024.3
20230208080700 9 32 16.1 29.0 0.00 0.00 0.00 32 1024.2
20230208080158 9 90 6.4 29.0 0.00 0.00 0.00 32 1024.0
20230208075658 9 89 29.0 29.0 0.00 0.00 0.00 32 1024.0
20230208074658 9 103 19.3 29.0 0.00 0.00 0.00 32 1023.8
20230208074158 9 76 14.5 27.4 0.00 0.00 0.00 32 1023.9
20230208073658 9 62 12.9 27.4 0.00 0.00 0.00 32 1024.0
20230208073158 9 82 12.9 32.2 0.00 0.00 0.00 32 1023.9
20230208072157 9 94 19.3 37.0 0.00 0.00 0.00 31 1023.9
20230208071657 9 82 12.9 37.0 0.00 0.00 0.00 31 1023.9
20230208071157 9 93 11.3 40.2 0.00 0.00 0.00 32 1023.9
20230208070658 9 107 24.1 40.2 0.00 0.00 0.00 32 1023.9
20230208070157 9 109 14.5 40.2 0.00 0.00 0.00 32 1023.7
20230208065657 8 109 14.5 35.4 0.00 0.00 0.00 33 1023.4
20230208065156 8 89 17.7 29.0 0.00 0.00 0.00 34 1023.6
20230208064656 8 99 17.7 19.3 0.00 0.00 0.00 35 1023.7
20230208064156 8 97 14.5 19.3 0.00 0.00 0.00 36 1023.8
20230208063657 7 61 8.0 16.1 0.00 0.00 0.00 36 1023.6
20230208063156 7 78 3.2 20.9 0.00 0.00 0.00 35 1023.6
20230208062655 7 96 3.2 20.9 0.00 0.00 0.00 38 1023.6
20230208061656 6 92 6.4 12.9 0.00 0.00 0.00 39 1023.3
20230208061155 6 181 1.6 6.4 0.00 0.00 0.00 42 1023.4
20230208060656 6 88 0.0 6.4 0.00 0.00 0.00 40 1023.4
20230208060155 7 86 1.6 6.4 0.00 0.00 0.00 38 1023.2
20230208055155 7 117 0.0 9.7 0.00 0.00 0.00 36 1023.3
20230208054655 7 107 4.8 20.9 0.00 0.00 0.00 36 1023.2
20230208054155 7 107 1.6 20.9 0.00 0.00 0.00 37 1023.1
20230208053154 7 148 9.7 14.5 0.00 0.00 0.00 39 1023.0
20230208052154 7 129 11.3 16.1 0.00 0.00 0.00 40 1022.8
20230208051653 7 156 3.2 16.1 0.00 0.00 0.00 40 1022.9
20230208051154 6 130 6.4 22.5 0.00 0.00 0.00 41 1022.7
20230208050654 6 108 11.3 24.1 0.00 0.00 0.00 43 1022.5
20230208050153 5 124 20.9 24.1 0.00 0.00 0.00 47 1022.0
20230208045653 3 146 9.7 16.1 0.00 0.00 0.00 51 1021.9
20230208045153 3 84 3.2 16.1 0.00 0.00 0.00 53 1022.0
20230208044653 3 116 4.8 11.3 0.00 0.00 0.00 54 1022.0
20230208044152 3 95 4.8 6.4 0.00 0.00 0.00 55 1021.9
20230208043653 3 92 1.6 6.4 0.00 0.00 0.00 55 1021.8
20230208043152 4 92 3.2 8.0 0.00 0.00 0.00 54 1022.0
20230208041152 3 92 6.4 17.7 0.00 0.00 0.00 54 1021.8
20230208040651 3 75 12.9 14.5 0.00 0.00 0.00 57 1021.8
20230208035651 2 105 0.0 6.4 0.00 0.00 0.00 60 1020.7
20230208035151 3 105 1.6 6.4 0.00 0.00 0.00 59 1021.1
20230208034651 3 116 4.8 4.8 0.00 0.00 0.00 59 1021.2
20230208034150 3 116 0.0 9.7 0.00 0.00 0.00 59 1021.2
20230208033651 3 116 3.2 9.7 0.00 0.00 0.00 60 1021.1
20230208032650 3 114 9.7 12.9 0.00 0.00 0.00 58 1021.3
20230208031650 3 117 3.2 12.9 0.00 0.00 0.00 57 1021.5
20230208031150 3 110 6.4 11.3 0.00 0.00 0.00 56 1021.5
20230208030149 3 150 9.7 12.9 0.00 0.00 0.00 56 1021.5
20230208025149 3 115 4.8 6.4 0.00 0.00 0.00 56 1021.4
20230208024649 3 116 3.2 6.4 0.00 0.00 0.00 55 1021.4
20230208024149 4 117 1.6 6.4 0.00 0.00 0.00 53 1021.5
20230208023649 4 117 6.4 6.4 0.00 0.00 0.00 52 1021.4
20230208023150 5 116 3.2 11.3 0.00 0.00 0.00 51 1021.7
20230208022649 5 116 6.4 11.3 0.00 0.00 0.00 51 1021.8
20230208022149 5 123 4.8 11.3 0.00 0.00 0.00 50 1021.9
20230208021154 5 117 6.4 11.3 0.00 0.00 0.00 49 1021.7
20230208020653 5 103 4.8 11.3 0.00 0.00 0.00 52 1021.8
20230208020152 6 107 9.7 11.3 0.00 0.00 0.00 49 1022.0
20230208015653 6 109 4.8 11.3 0.00 0.00 0.00 49 1022.0
20230208015152 7 112 3.2 6.4 0.00 0.00 0.00 48 1022.1
20230208014652 7 113 3.2 6.4 0.00 0.00 0.00 46 1022.2
20230208014152 8 113 1.6 6.4 0.00 0.00 0.00 45 1022.3
20230208013152 9 112 3.2 9.7 0.00 0.00 0.00 39 1022.5
20230208012652 9 133 1.6 11.3 0.00 0.00 0.00 38 1022.4
20230208012153 10 135 4.8 11.3 0.00 0.00 0.00 37 1022.4
20230208011652 10 270 0.0 1.6 0.00 0.00 0.00 41 1022.6
20230208010651 11 270 0.0 9.7 0.00 0.00 0.00 42 1022.5
20230208010151 11 269 3.2 6.4 0.00 0.00 0.00 39 1022.7
20230208005151 11 188 4.8 12.9 0.00 0.00 0.00 34 1022.6
20230208004650 12 153 4.8 12.9 0.00 0.00 0.00 32 1022.8
20230208004150 12 134 6.4 12.9 0.00 0.00 0.00 32 1022.7
20230208003150 13 211 3.2 16.1 0.00 0.00 0.00 34 1023.1
20230208002650 13 163 3.2 9.7 0.00 0.00 0.00 37 1023.0
20230208002150 14 146 4.8 12.9 0.00 0.00 0.00 35 1023.1
20230208001649 15 257 4.8 12.9 0.00 0.00 0.00 33 1023.2
20230208000649 15 78 4.8 11.3 0.00 0.00 0.00 30 1023.4
20230208000149 15 281 4.8 16.1 0.00 0.00 0.00 26 1023.2
20230207235149 16 281 4.8 12.9 0.00 0.00 0.00 28 1023.3
20230207234649 16 254 4.8 12.9 0.00 0.00 0.00 27 1023.3
20230207233148 15 109 1.6 19.3 0.00 0.00 0.00 26 1023.1
20230207232648 15 119 4.8 25.7 0.00 0.00 0.00 26 1023.5
20230207232148 15 125 8.0 25.7 0.00 0.00 0.00 27 1023.5
20230207231648 16 133 17.7 22.5 0.00 0.00 0.00 24 1023.5
20230207231148 16 163 1.6 20.9 0.00 0.00 0.00 25 1023.5
20230207230648 15 286 11.3 17.7 0.00 0.00 0.00 26 1023.4
20230207230147 15 133 3.2 20.9 0.00 0.00 0.00 26 1023.4
20230207225648 15 96 14.5 20.9 0.00 0.00 0.00 26 1023.4
20230207225148 15 136 14.5 20.9 0.00 0.00 0.00 25 1023.4
20230207224147 15 117 11.3 22.5 0.00 0.00 0.00 25 1023.5
20230207223647 14 92 12.9 32.2 0.00 0.00 0.00 26 1023.2
20230207223147 14 103 20.9 32.2 0.00 0.00 0.00 26 1023.2
20230207222647 14 149 14.5 29.0 0.00 0.00 0.00 24 1023.3
20230207222147 15 136 12.9 29.0 0.00 0.00 0.00 25 1023.6
20230207221647 15 74 8.0 29.0 0.00 0.00 0.00 26 1023.4
20230207221147 14 163 24.1 29.0 0.00 0.00 0.00 26 1023.2
20230207220646 14 148 8.0 24.1 0.00 0.00 0.00 26 1023.3
20230207220147 15 159 12.9 30.6 0.00 0.00 0.00 26 1023.6
20230207215646 15 107 12.9 30.6 0.00 0.00 0.00 26 1023.6
20230207215146 15 133 12.9 27.4 0.00 0.00 0.00 26 1023.7
20230207214646 15 126 0.0 24.1 0.00 0.00 0.00 26 1023.7
20230207214146 15 115 20.9 24.1 0.00 0.00 0.00 27 1023.7
20230207213146 15 138 8.0 24.1 0.00 0.00 0.00 25 1023.9
20230207212647 15 126 20.9 25.7 0.00 0.00 0.00 27 1023.9
20230207212145 15 177 8.0 27.4 0.00 0.00 0.00 28 1023.8
20230207211145 15 180 3.2 25.7 0.00 0.00 0.00 26 1023.8
20230207210145 15 86 12.9 27.4 0.00 0.00 0.00 25 1023.9
20230207205645 15 130 14.5 24.1 0.00 0.00 0.00 26 1024.0
20230207205144 15 96 17.7 25.7 0.00 0.00 0.00 24 1023.9
20230207204646 15 93 19.3 25.7 0.00 0.00 0.00 25 1024.0
20230207204143 15 71 16.1 25.7 0.00 0.00 0.00 26 1024.0
20230207203643 15 112 9.7 25.7 0.00 0.00 0.00 24 1024.1
20230207203143 15 112 6.4 27.4 0.00 0.00 0.00 23 1024.1
20230207202643 15 76 20.9 27.4 0.00 0.00 0.00 26 1024.4
20230207202143 15 105 11.3 22.5 0.00 0.00 0.00 25 1024.4
20230207200656 15 87 17.7 19.3 0.00 0.00 0.00 25 1024.6
20230207195656 15 117 6.4 32.2 0.00 0.00 0.00 26 1024.6
20230207194656 15 143 4.8 25.7 0.00 0.00 0.00 23 1024.7
20230207194156 14 112 4.8 29.0 0.00 0.00 0.00 28 1024.7
20230207193656 13 139 14.5 37.0 0.00 0.00 0.00 26 1024.7
20230207193155 13 105 19.3 40.2 0.00 0.00 0.00 27 1024.9
20230207192656 13 78 19.3 40.2 0.00 0.00 0.00 27 1024.8
20230207192156 13 108 14.5 27.4 0.00 0.00 0.00 30 1024.8
20230207191655 14 115 19.3 32.2 0.00 0.00 0.00 27 1025.0
20230207191155 14 93 19.3 32.2 0.00 0.00 0.00 28 1024.9
20230207190655 13 96 12.9 29.0 0.00 0.00 0.00 29 1024.9
20230207185655 13 86 16.1 33.8 0.00 0.00 0.00 31 1024.9
20230207185154 13 130 11.3 33.8 0.00 0.00 0.00 29 1024.8
20230207184154 12 78 24.1 35.4 0.00 0.00 0.00 28 1024.8
20230207183654 12 121 8.0 32.2 0.00 0.00 0.00 30 1024.8
20230207183154 12 133 12.9 29.0 0.00 0.00 0.00 31 1024.9
20230207182153 12 119 16.1 37.0 0.00 0.00 0.00 31 1025.0
20230207181653 12 101 22.5 35.4 0.00 0.00 0.00 31 1025.0
20230207181153 12 123 25.7 33.8 0.00 0.00 0.00 30 1025.1
20230207180153 12 90 12.9 32.2 0.00 0.00 0.00 31 1025.1
20230207175654 12 122 11.3 41.8 0.00 0.00 0.00 29 1025.1
20230207174152 12 124 29.0 40.2 0.00 0.00 0.00 31 1025.3
20230207173652 12 188 4.8 37.0 0.00 0.00 0.00 31 1025.3
20230207173152 11 72 12.9 37.0 0.00 0.00 0.00 31 1025.0
20230207171651 11 102 25.7 43.5 0.00 0.00 0.00 32 1025.2
20230207170651 11 98 24.1 40.2 0.00 0.00 0.00 33 1025.0
20230207170151 11 119 25.7 29.0 0.00 0.00 0.00 34 1024.3
20230207165650 11 94 14.5 29.0 0.00 0.00 0.00 35 1024.3
20230207165151 10 96 11.3 32.2 0.00 0.00 0.00 35 1024.2
20230207164650 10 107 29.0 32.2 0.00 0.00 0.00 35 1023.9
20230207164150 10 161 1.6 33.8 0.00 0.00 0.00 36 1023.9
20230207163150 9 96 16.1 30.6 0.00 0.00 0.00 39 1023.6
20230207162650 8 121 17.7 32.2 0.00 0.00 0.00 39 1023.5
20230207162150 8 142 6.4 32.2 0.00 0.00 0.00 40 1023.4
20230207161649 8 94 4.8 25.7 0.00 0.00 0.00 40 1023.4
20230207161150 7 133 3.2 37.0 0.00 0.00 0.00 41 1023.4
20230207160649 7 115 16.1 41.8 0.00 0.00 0.00 40 1023.5
20230207160150 7 111 20.9 41.8 0.00 0.00 0.00 40 1022.2